AirNav   Everest Fuels
 
 1120 users online  

NH16 Brookline Airport
Brookline, New Hampshire, USA

GOING TO BROOKLINE?


FAA INFORMATION EFFECTIVE 19 MAY 2022

Location

FAA Identifier: NH16
Lat/Long: 42-44-30.3150N 071-42-27.2610W
42-44.505250N 071-42.454350W
42.7417542,-71.7075725
(estimated)
Elevation: 415 ft. / 126 m (estimated)
Variation: 16W (1985)
From city: 2 miles W of BROOKLINE, NH
Time zone: UTC -4 (UTC -5 during Standard Time)
Zip code: 03033

Airport Operations

Airport use: Private use. Permission required prior to landing
Activation date: 12/1973
Control tower: no
ARTCC: BOSTON CENTER
FSS: BANGOR FLIGHT SERVICE STATION
Attendance: UNATNDD
Wind indicator: yes
Segmented circle: no
Lights: ACTVT NSTD LIRL RY 01/19 ON FREQUENCY 122.725.

Airport Communications

WX AWOS-3PT at ASH (9 nm E): 125.1 (603-578-0473)
WX ASOS at FIT (12 nm S): 135.175 (978-343-9121)
WX ASOS at AFN (14 nm W): 135.875 (603-532-6195)
WX ASOS at MHT (17 nm NE): 119.55 (603-621-1766)

Nearby radio navigation aids

VOR radial/distance  VOR name  Freq  Var
MHTr258/16.7MANCHESTER VOR/DME114.4015W
GDMr067/19.4GARDNER VOR/DME110.6014W
CONr206/29.3CONCORD VOR/DME112.9015W
BOSr322/39.2BOSTON VOR/DME112.7016W

 
NDB name  Hdg/Dist  Freq  Var  ID
FITZY242/10.820915WMJ -- .---

Airport Services

Airframe service: NONE
Powerplant service: NONE

Runway Information

Runway 1/19

Dimensions: 1926 x 24 ft. / 587 x 7 m
Surface: asphalt, in excellent condition
Runway edge lights: non-standard
RUNWAY 1  RUNWAY 19
Traffic pattern: leftleft
Obstructions: 60 ft. treesnone

Airport Ownership and Management from official FAA records

Ownership: Privately-owned
Owner: AERO PROPERTIES LLC
12 PIGEON HILL ROAD, PO BOX 129
BROOKLINE, NH 03033
Phone 603-673-5555
Manager: THOMAS F. MORAN
12 PIGEON HILL ROAD, PO BOX 129
BROOKLINE, NH 03033
Phone 603-673-5555

Airport Operational Statistics

Aircraft based on the field: 16
Single engine airplanes: 15
Ultralights: 1
    

Additional Remarks

A51-01 DISPLACED THRESHOLD RWY 1.
FOR CD CTC BOSTON APCH AT 603-594-5551.

Instrument Procedures

There are no published instrument procedures at NH16.

Some nearby airports with instrument procedures:

KASH - Boire Field Airport (9 nm E)
KFIT - Fitchburg Municipal Airport (12 nm S)
KAFN - Jaffrey/Silver Ranch Airport (14 nm W)
KMHT - Manchester Boston Regional Airport (17 nm NE)
KGDM - Gardner Municipal Airport (18 nm SW)
6B6 - Minute Man Air Field (19 nm SE)
 
Loc | Ops | Rwys | IFR | FBO | Links
Com | Nav | Svcs | Stats | Notes
Area around NH16 (Brookline Airport)
 
Road maps at: MapQuest Bing Google
 
Aerial photo
WARNING: Photo may not be current or correct
Aerial photo of NH16 (Brookline Airport)
Photo taken 31-Jul-2007

Do you have a better or more recent aerial photo of Brookline Airport that you would like to share? If so, please send us your photo.

 
Sectional chart

 
Airport distance calculator
Flying to Brookline Airport? Find the distance to fly.

From to NH16

Sunrise and sunset
Times for 28-May-2022
 Local
(UTC-4)
 Zulu
(UTC)
Morning civil twilight04:4108:41
Sunrise05:1409:14
Sunset20:1400:14
Evening civil twilight20:4800:48

Current date and time
Zulu (UTC)  28-May-2022 16:25:21
Local (UTC-4)  28-May-2022 12:25:21
 
METAR
KASH 
9nm E 
281556Z VRB04KT 10SM SCT021 BKN033 BKN100 24/20 A2967 RMK AO2 SLP050 T02390200
KFIT 
12nm S 
281552Z AUTO 23005KT 10SM FEW021 FEW085 24/16 A2968 RMK AO2 SLP049 T02390161
KAFN 
13nm W 
281552Z AUTO 26006KT 10SM FEW030 23/17 A2970 RMK AO2 SLP056 T02330167
KMHT 
17nm NE 
281553Z 18005KT 10SM BKN015 BKN026 BKN100 24/18 A2965 RMK AO2 SLP049 T02440178
TAF
KMHT 
17nm NE 
281120Z 2812/2912 20005KT P6SM OVC010 FM281600 21008G16KT P6SM SCT015 BKN050 FM281800 26012G18KT 5SM -SHRA VCTS BKN050CB FM282300 32008KT P6SM BKN100
NOTAMs
Click for the latest NOTAMs
NOTAMs are issued by the DoD/FAA and will open in a separate window not controlled by AirNav.

 

 
 

Would you like to see your business listed on this page?

 If your business provides an interesting product or service to pilots, flight crews, aircraft, or users of the Brookline Airport, you should consider listing it here.  To start the listing process, click on the button below
 
Add a business
 

Other Pages about Brookline Airport

Update a link
 
Copyright © AirNav, LLC. All rights reserved. Privacy Policy  Contact